Location: Fuglau
(48.6333°N, 15.5500°E)
Time: 09:45:24
(UTC+00:00)

ATLAS 3B R/B - Pass Details

Date: 27 February 2020
Orbit: 1029 x 1166 km, 63.8° (Epoch: 12 March)

Event Time Altitude Azimuth Distance (km) Brightness Sun altitude
Rises 19:26:21 0° 318° (NW) 3,798 6.5 -28.3°
Reaches altitude 10° 19:29:02 10° 323° (NW) 2,853 5.6 -28.7°
Enters shadow 19:35:30 55° 36° (NE) 1,253 2.9 -29.7°
